Location: Heiligenberg
(48.5381°N, 7.3897°E)
Time: 03:14:05
(UTC+00:00)

Cosmos 1943 Rocket - Pass Details

Date: 26 May 2022
Orbit: 810 x 845 km, 71.0° (Epoch: 26 June)

Event Time Altitude Azimuth Distance (km) Brightness Sun altitude
Rises 01:25:02 0° 330° (NNW) 3,413 5.8 -15.6°
Reaches altitude 10° 01:27:30 10° 329° (NNW) 2,476 5.0 -15.4°
Maximum altitude 01:33:09 71° 246° (WSW) 893 2.1 -14.9°
Drops below altitude 10° 01:38:47 10° 163° (SSE) 2,457 4.2 -14.4°
Enters shadow 01:39:24 - 163° (SSE) 2,696 4.4 -14.4°
